Location: Feydey
(46.3431°N, 7.0106°E)
Time: 23:40:15
(UTC+00:00)

Cosmos 1486 Rocket - Pass Details

Date: 20 June 2021
Orbit: 759 x 783 km, 74.1° (Epoch: 23 July)

Event Time Altitude Azimuth Distance (km) Brightness Sun altitude
Rises 21:28:12 0° 339° (NNW) 3,237 9.1 -14.7°
Reaches altitude 10° 21:30:35 10° 340° (NNW) 2,305 7.8 -14.9°
Maximum altitude 21:35:49 79° 67° (ENE) 779 4.0 -15.3°
Enters shadow 21:38:54 25° 152° (SSE) 1,495 4.9 -15.5°
